Current Version              Previous Version:    01  02  03  04  05  06  07  08  09  10  11  12  13  14  15  16  17  18  19  20  21  22  23  24  25  26  27  28  29  30  
   31  32  33  34  35  36  37  38  39  40  41  42  43  44  45  46  47  48  49  50  51  52  53  54  55  56  57  58  59  60  

[Printable]
522
ASUS44 KFWD 010915
RWRTX
NORTH TEXAS HOURLY WEATHER ROUNDUP
NATIONAL WEATHER SERVICE FORT WORTH TX
400 AM CDT WED OCT 01 2014

NOTE: "FAIR" INDICATES FEW OR NO CLOUDS BELOW 12,000 FEET WITH NO
SIGNIFICANT WEATHER AND/OR OBSTRUCTIONS TO VISIBILITY.

TXZ118-119-011000-
DALLAS/FORT WORTH METROPLEX

CITY           SKY/WX    TMP DP  RH WIND       PRES   REMARKS
DFW AIRPORT    CLEAR     77  69  76 S10       29.77F
DALLAS LOVE    PTCLDY    76  69  79 S9        29.79R
FTW MEACHAM    CLEAR     77  68  73 S12       29.77S
DAL-EXECUTIVE  CLEAR     76  69  79 S8        29.78F
FTW-ALLIANCE   PTCLDY    74  68  81 S8        29.77S
FTW-NAS-JRB    CLEAR     79  66  64 S12       29.81F
FTW-SPINKS     CLEAR     75  68  79 S5        29.80S
ARLINGTON      CLEAR     75  68  78 S8        29.78F
GRAND PRAIRIE  CLEAR     75  67  76 S6        29.80S
ADDISON        CLEAR     77  67  72 S6        29.81S
MESQUITE       CLEAR     73  69  89 SE6       29.80F
LANCASTER      CLEAR     73  67  82 S6        29.81S
$$

TXZ091>094-102>105-117-120-121-131>134-011000-
NORTH CENTRAL TEXAS

CITY           SKY/WX    TMP DP  RH WIND       PRES   REMARKS
SHRMAN/DENISON CLEAR     74  67  80 SE9       29.79F
GAINESVILLE    CLEAR     73  68  86 SE9       29.79F
BOWIE          PTCLDY    73  65  76 SE6       29.78R
BRIDGEPORT     CLEAR     74  63  66 SE6       29.79R
DECATUR        CLEAR     74  65  71 S12       29.78S
DENTON         CLEAR     74  68  81 S7        29.78R
MCKINNEY       CLEAR     73  69  87 S7        29.79S
GREENVILLE     CLEAR     72  68  88 SE5       29.81S
ROCKWALL       CLEAR     73  70  89 SE10      29.79S
TERRELL        CLEAR     74  70  87 S5        29.81S
WAXAHACHIE     CLEAR     71  69  93 SE3       29.81S
CLEBURNE       CLEAR     73  70  88 S9        29.81S
GRANBURY       CLEAR     76  67  75 SE6       29.79S
$$

TXZ083>090-098>101-113>116-127>130-139>142-154-155-011000-
WESTERN NORTH TEXAS

CITY           SKY/WX    TMP DP  RH WIND       PRES   REMARKS
WICHITA FALLS  CLOUDY    74  62  66 S14       29.73S
WF-KICKAPOO    MOCLDY    73  62  68 SE9       29.75R
VERNON         CLEAR     73  61  65 S14       29.72S
ABILENE        CLEAR     76  61  59 S10G20    29.78S
ABILENE-DYESS  CLEAR     75  62  63 S13G20    29.76F
BRECKENRIDGE   MOCLDY    76  62  61 S10       29.76S
GRAHAM         CLEAR     76  63  62 S8        29.74S
MINERAL WELLS  CLEAR     71  64  78 SE9       29.77R
STEPHENVILLE   CLEAR     70  64  81 S5        29.82S
COMANCHE       CLEAR     73  65  74 S7        29.80S
BROWNWOOD      PTCLDY    70  64  83 SE7       29.80S
COLEMAN        CLEAR     69  60  74 S5        29.80F
BRADY          CLEAR     70  63  78 S8        29.81F
$$

TXZ143>147-156>162-174-175-011000-
CENTRAL TEXAS

CITY           SKY/WX    TMP DP  RH WIND       PRES   REMARKS
WACO           MOCLDY    75  71  87 S12       29.80F
WACO-MCGREGOR  CLOUDY    73  66  78 S9        29.82S
HILLSBORO      CLEAR     74  68  79 SE9       29.80S
CORSICANA      CLEAR     73  70  90 S7        29.82F
MEXIA          CLOUDY    72  71  97 S8        29.81F
HEARNE         CLOUDY    73  72  95 SE5       29.81S
CAMERON        CLOUDY    74  73  95 S8        29.81S
TEMPLE         CLOUDY    73  68  83 S13       29.80F
KILLEEN        CLOUDY    75  72  88 S7        29.81F
KILLEEN-SKYLRK CLOUDY    73  66  78 S5        29.80S
GATESVILLE     PTCLDY    72  70  94 SE3       29.83S
HAMILTON       CLEAR     72  69  91 S10       29.81F
LAMPASAS       CLOUDY    76  73  93 S6        29.81S
$$

TXZ095>097-106>112-122>126-135>138-148>153-164>167-011000-
EAST TEXAS

CITY           SKY/WX    TMP DP  RH WIND       PRES   REMARKS
PARIS          CLEAR     70  61  73 SE8       29.82S
SULPHUR SPRNGS CLEAR     74  69  84 S8        29.83F
MOUNT PLEASANT PTCLDY    70  68  93 SE3       29.84S
GILMER         CLEAR     73  72  94 CALM      29.85S
MINEOLA        CLEAR     73  72  94 CALM      29.83S
TYLER          CLEAR     74  71  91 S7        29.83S
LONGVIEW       CLEAR     71  68  90 SE3       29.83R
MARSHALL       PTCLDY    73  71  91 CALM      29.86S
ATHENS         CLEAR     72  70  94 S3        29.82S
PALESTINE      CLEAR     73  72  97 CALM      29.83F
HENDERSON      MOCLDY    70  70  99 CALM      29.84S
NACOGDOCHES    CLOUDY    73  72  94 SE3       29.84S
LUFKIN         CLOUDY    77  73  87 E3        29.82F FOG
$$

SUPPLEMENTAL OBSERVATIONS (CENTRAL)

CITY           SKY/WX    TMP DP  RH WIND       PRES   REMARKS
LAKE TEXOMA      N/A     70  64  83 E3          N/A
PAT MAYSE LAKE   N/A     72  66  83 E9          N/A
ATHENS           N/A     73  70  88 S5          N/A
PALESTINE        N/A     73  70  88 S3          N/A
MCGREGOR         N/A     75  70  83 S9          N/A
TEMPLE           N/A     73  68  83 S10         N/A
$$

SUPPLEMENTAL OBSERVATIONS (WEST)

CITY           SKY/WX    TMP DP  RH WIND       PRES   REMARKS
MILLERS CREEK    N/A     73  57  56 S9          N/A
POSSUM KINGDOM   N/A     75  63  64 S7          N/A
GRANBURY         N/A     75  66  73 SE8         N/A
HAMBY            N/A     73  59  60 S13         N/A
$$

SUPPLEMENTAL OBSERVATIONS (EAST)

CITY           SKY/WX    TMP DP  RH WIND       PRES   REMARKS
CLARKSVILLE      N/A     70  66  88 SE5         N/A
TEXARKANA        N/A     68  64  88 CALM        N/A
LINDEN           N/A     72  66  83 CALM        N/A
CADDO LAKE       N/A     70  66  88 CALM        N/A
GILMER           N/A     72  66  83 S1          N/A
HENDERSON        N/A     72  68  88 S1          N/A
N SABINE NF      N/A     72  68  88 MISG        N/A
S SABINE NF      N/A     73  70  88 S1          N/A
$$

SUPPLEMENTAL OBSERVATIONS ARE A COLLECTION OF AUTOMATED INSTRUMENTS
THAT ARE MAINTAINED BY A VARIETY OF FEDERAL AND STATE AGENCIES.
CERTAIN ELEMENTS...SUCH AS HUMIDITY VALUES AND SUSTAINED WIND
SPEEDS...MAY BE APPROXIMATED.